Location: Aurora Center
(43.5271°N, 98.5894°W)
Time: 01:43:08
(UTC-05:00)

BlueWalker 3 - Pass Details

Date: 19 June 2024
Orbit: 480 x 492 km, 53.2° (Epoch: 15 July)

Event Time Altitude Azimuth Distance (km) Brightness Sun altitude
Rises 22:35:53 0° 234° (SW) 2,531 5.6 -11.3°
Reaches altitude 10° 22:38:03 10° 235° (SW) 1,653 4.6 -11.6°
Maximum altitude 22:41:47 85° 322° (NW) 487 1.9 -12.0°
Drops below altitude 10° 22:45:31 10° 54° (NE) 1,657 4.5 -12.4°
Sets 22:47:41 0° 55° (NE) 2,539 5.5 -12.7°
